Location: Newark
(45.4422°N, 16.2769°E)
Time: 12:15:20
(UTC+00:00)

Vanguard 2 - Pass Details

Date: 16 December 2019
Orbit: 553 x 2938 km, 32.9° (Epoch: 25 January)

Event Time Altitude Azimuth Distance (km) Brightness Sun altitude
Rises 01:09:16 0° 256° (WSW) 5,720 - -54.2°
Reaches altitude 10° 01:12:45 10° 252° (WSW) 4,975 - -53.7°
Maximum altitude 01:27:27 53° 182° (S) 3,325 - -51.3°
Exits shadow 01:30:59 48° 152° (SSE) 3,518 10.6 -50.7°
Drops below altitude 10° 01:44:17 10° 112° (ESE) 5,624 12.3 -48.5°
Sets 01:48:31 0° 108° (ESE) 6,484 12.8 -47.8°
